STARLINK-76 (44287 NORAD) Tracking and Keplerian Element Data

This shows tracking and keplerian element data for the satellite.

Feedback or suggestion? Click here.




ElementValue
Catalog44287
NameSTARLINK-76
Epoch Orbit13263
Epoch Day269.5865049
Epoch Year2021
RAAN116.726
Inclination52.9578
Eccentricity0.0003663
Argument of Perigee96.3451
Mean Anonmoly319.5267
Mean Motion16.43523148
Decay Rate0.3267113
L11 44287U 19029BE 21269.58650490 .32671130 12458-4 14077-2 0 9991
L22 44287 52.9578 116.7260 0003663 96.3451 319.5267 16.43523148132637



Live tracking and technical data element details for STARLINK-76 (NORAD 44287). STARLINK-76 can be tracked NOW for your location showing map with azimuth and elevation plus other details from your city location.







IsCatalogInMostPopularTable: catalog: 44287, numindb: 336
Update: records affected: 1



GetName: 44287 STARLINK-76

Hit Count: updated at: Thu, 22 May 2025 03:27:36 GMT